IR3AS Weather Reports


time (UTC)temp
C
wind
direction
speed
KPH
gust
KPH
rain 1hr
cm
rain 24hr
cm
rain mn
cm
humidity
%
barometer
mb
20260502214058 5 315 1.6 3.2 0.00 0.00 0.00 65 861.7
20260502213558 5 315 1.6 4.8 0.00 0.00 0.00 65 861.7
20260502213058 5 315 0.0 0.0 0.00 0.00 0.00 65 861.7
20260502212558 5 315 3.2 8.0 0.00 0.00 0.00 65 861.7
20260502212058 5 315 0.0 9.7 0.00 0.00 0.00 65 861.8
20260502211558 5 315 1.6 9.7 0.00 0.00 0.00 66 861.7
20260502211058 5 315 4.8 8.0 0.00 0.00 0.00 66 861.9
20260502210558 5 315 1.6 16.1 0.00 0.00 0.00 66 861.7
20260502210058 5 315 3.2 8.0 0.00 0.00 0.00 66 861.7
20260502205558 5 315 1.6 6.4 0.00 0.00 0.00 66 861.8
20260502205058 5 315 4.8 11.3 0.00 0.00 0.00 66 861.8
20260502204558 5 292 0.0 6.4 0.00 0.00 0.00 66 861.9
20260502204058 5 315 3.2 4.8 0.00 0.00 0.00 66 862.0
20260502203558 6 315 3.2 11.3 0.00 0.00 0.00 66 862.1
20260502203058 6 315 1.6 16.1 0.00 0.00 0.00 66 861.9
20260502202558 6 315 4.8 11.3 0.00 0.00 0.00 67 862.1
20260502202058 6 315 3.2 8.0 0.00 0.00 0.00 67 862.0
20260502201558 6 315 3.2 8.0 0.00 0.00 0.00 67 862.2
20260502201058 6 315 4.8 11.3 0.00 0.00 0.00 66 862.4
20260502200558 6 315 1.6 11.3 0.00 0.00 0.00 67 862.5
20260502200058 6 292 3.2 9.7 0.00 0.00 0.00 67 862.3
20260502195558 6 292 1.6 9.7 0.00 0.00 0.00 67 862.4
20260502195058 6 315 4.8 9.7 0.00 0.00 0.00 68 862.6
20260502194558 6 315 9.7 9.7 0.00 0.00 0.00 67 862.5
20260502194058 6 315 11.3 11.3 0.00 0.00 0.00 67 862.8
20260502193558 6 315 8.0 9.7 0.00 0.00 0.00 67 862.9
20260502193058 6 315 3.2 11.3 0.00 0.00 0.00 67 862.8
20260502192558 6 315 3.2 11.3 0.00 0.00 0.00 67 863.2
20260502192058 6 315 11.3 11.3 0.00 0.00 0.00 67 863.0
20260502191558 6 315 4.8 11.3 0.00 0.00 0.00 67 863.4
20260502191058 6 315 4.8 11.3 0.00 0.00 0.00 67 863.2
20260502190558 6 315 9.7 11.3 0.00 0.00 0.00 67 863.0
20260502190058 6 315 4.8 11.3 0.00 0.00 0.00 67 863.0
20260502185558 6 315 3.2 9.7 0.00 0.00 0.00 67 863.1
20260502185058 6 337 3.2 9.7 0.00 0.00 0.00 66 863.0
20260502184558 6 315 3.2 11.3 0.00 0.00 0.00 66 862.9
20260502184058 6 315 3.2 9.7 0.00 0.00 0.00 65 863.2
20260502183558 6 292 11.3 11.3 0.00 0.00 0.00 64 863.1
20260502183058 7 315 6.4 9.7 0.00 0.00 0.00 63 863.1
20260502182558 7 315 8.0 8.0 0.00 0.00 0.00 61 863.0
20260502182058 7 315 8.0 9.7 0.00 0.00 0.00 59 863.0
20260502181558 8 315 8.0 8.0 0.00 0.00 0.00 57 862.9
20260502181058 10 315 4.8 6.4 0.00 0.00 0.00 55 863.0
20260502180558 10 315 3.2 9.7 0.00 0.00 0.00 54 863.2
20260502164059 15 0 9.7 9.7 0.00 0.00 0.00 44 863.9
20260502163559 16 45 4.8 11.3 0.00 0.00 0.00 43 863.7
20260502163059 16 45 0.0 9.7 0.00 0.00 0.00 43 863.9
20260502162559 17 22 0.0 9.7 0.00 0.00 0.00 42 863.7
20260502162100 17 90 1.6 11.3 0.00 0.00 0.00 42 863.8
20260502161600 18 0 11.3 14.5 0.00 0.00 0.00 44 863.8
20260502161059 17 22 9.7 11.3 0.00 0.00 0.00 45 863.8
20260502160600 17 22 3.2 9.7 0.00 0.00 0.00 45 863.8
20260502152058 12 0 0.0 9.7 0.00 0.00 0.00 53 864.3
20260502151558 12 337 0.0 12.9 0.00 0.00 0.00 53 864.3
20260502151158 12 337 0.0 0.0 0.00 0.00 0.00 53 864.0
20260502151058 12 337 0.0 0.0 0.00 0.00 0.00 53 864.0
20260502150558 11 315 0.0 9.7 0.00 0.00 0.00 52 864.4
20260502130633 12 112 0.0 12.9 0.00 0.00 0.00 53 864.4
20260502130559 12 112 0.0 12.9 0.00 0.00 0.00 53 864.4
20260502123559 11 22 4.8 8.0 0.00 0.00 0.00 57 863.7
20260502123059 10 337 0.0 0.0 0.00 0.00 0.00 57 863.8
20260502122559 10 22 0.0 9.7 0.00 0.00 0.00 57 863.7
20260502122059 10 90 0.0 4.8 0.00 0.00 0.00 58 863.8
20260502121559 10 337 0.0 0.0 0.00 0.00 0.00 57 864.2
20260502121059 10 315 3.2 12.9 0.00 0.00 0.00 57 864.0
20260502120559 10 0 0.0 16.1 0.00 0.00 0.00 56 863.9
20260502115559 10 337 0.0 11.3 0.00 0.00 0.00 56 863.9
20260502115059 10 337 1.6 17.7 0.00 0.00 0.00 56 863.8
20260502114559 10 0 14.5 14.5 0.00 0.00 0.00 56 863.5
20260502114059 10 0 0.0 4.8 0.00 0.00 0.00 56 863.5
20260502113559 10 0 0.0 8.0 0.00 0.00 0.00 55 863.7
20260502113059 11 337 0.0 9.7 0.00 0.00 0.00 55 864.0
20260502112559 11 67 9.7 9.7 0.00 0.00 0.00 54 863.5
20260502112059 11 22 0.0 3.2 0.00 0.00 0.00 53 863.7
20260502111559 12 135 0.0 3.2 0.00 0.00 0.00 51 863.9
20260502111059 12 112 0.0 1.6 0.00 0.00 0.00 53 864.0
20260502110559 11 112 0.0 3.2 0.00 0.00 0.00 54 864.2
20260502110059 11 135 1.6 6.4 0.00 0.00 0.00 53 864.0
20260502105643 11 112 0.0 1.6 0.00 0.00 0.00 54 864.3
20260502105559 11 112 0.0 1.6 0.00 0.00 0.00 54 864.3
20260502105059 11 135 0.0 4.8 0.00 0.00 0.00 55 864.2
20260502104559 10 112 0.0 1.6 0.00 0.00 0.00 57 864.3
20260502104059 8 90 0.0 0.0 0.00 0.00 0.00 60 864.3
20260502103559 7 90 0.0 1.6 0.00 0.00 0.00 60 864.2
20260502103059 7 135 0.0 4.8 0.00 0.00 0.00 59 864.3
20260502102559 7 135 3.2 6.4 0.00 0.00 0.00 60 864.3
20260502102059 7 135 0.0 6.4 0.00 0.00 0.00 60 864.5
20260502101559 6 157 0.0 3.2 0.00 0.00 0.00 60 864.5
20260502101059 6 157 0.0 6.4 0.00 0.00 0.00 60 864.6
20260502100633 6 157 0.0 8.0 0.00 0.00 0.00 60 864.8
20260502100559 6 157 0.0 8.0 0.00 0.00 0.00 60 864.8
20260502091102 6 135 6.4 11.3 0.00 0.00 0.00 58 865.6
20260502090600 6 135 4.8 11.3 0.00 0.00 0.00 57 865.5
20260502071100 4 135 8.0 8.0 0.00 0.00 0.00 60 864.4
20260502070600 4 135 0.0 6.4 0.00 0.00 0.00 60 864.2
20260502065600 5 157 3.2 9.7 0.00 0.00 0.00 57 863.9
20260502065100 5 135 0.0 8.0 0.00 0.00 0.00 56 863.8
20260502064600 6 135 3.2 8.0 0.00 0.00 0.00 54 863.9
20260502064101 6 135 1.6 9.7 0.00 0.00 0.00 53 863.9
20260502063601 6 135 6.4 8.0 0.00 0.00 0.00 55 863.7
20260502063100 5 135 3.2 9.7 0.00 0.00 0.00 56 863.8
20260502062600 4 135 9.7 11.3 0.00 0.00 0.00 57 863.9
20260502062100 3 135 9.7 12.9 0.00 0.00 0.00 58 863.9
20260502061600 3 157 9.7 12.9 0.00 0.00 0.00 58 863.8
20260502061101 3 157 9.7 12.9 0.00 0.00 0.00 56 864.0
20260502060600 5 157 11.3 11.3 0.00 0.00 0.00 54 863.8
20260502060100 5 135 9.7 9.7 0.00 0.00 0.00 53 863.7
20260502055600 5 157 9.7 9.7 0.00 0.00 0.00 53 864.0
20260502055100 5 157 9.7 11.3 0.00 0.00 0.00 52 863.9
20260502054600 5 157 9.7 9.7 0.00 0.00 0.00 53 863.8
20260502054100 5 157 9.7 11.3 0.00 0.00 0.00 54 863.6
20260502053600 4 135 8.0 9.7 0.00 0.00 0.00 55 863.5
20260502053100 4 135 8.0 9.7 0.00 0.00 0.00 55 863.6
20260502052600 3 135 8.0 9.7 0.00 0.00 0.00 55 863.4
20260502052100 3 135 9.7 9.7 0.00 0.00 0.00 56 863.4
20260502051600 3 135 9.7 9.7 0.00 0.00 0.00 56 863.3
20260502051100 3 135 8.0 8.0 0.00 0.00 0.00 57 863.1
20260502050601 3 135 6.4 12.9 0.00 0.00 0.00 57 863.0
20260502050101 3 135 11.3 12.9 0.00 0.00 0.00 57 862.9
20260502045601 3 135 11.3 14.5 0.00 0.00 0.00 57 862.8
20260502045101 3 135 11.3 11.3 0.00 0.00 0.00 56 862.7
20260502044601 3 112 9.7 9.7 0.00 0.00 0.00 56 862.8
20260502044101 3 135 8.0 8.0 0.00 0.00 0.00 57 862.9
20260502043601 3 112 6.4 8.0 0.00 0.00 0.00 58 862.7
20260502043101 3 112 1.6 9.7 0.00 0.00 0.00 59 862.5
20260502042601 2 45 9.7 9.7 0.00 0.00 0.00 61 862.5
20260502042101 2 0 4.8 6.4 0.00 0.00 0.00 62 862.5
20260502041601 2 0 1.6 6.4 0.00 0.00 0.00 62 862.5
20260502041101 2 337 4.8 11.3 0.00 0.00 0.00 62 862.6
20260502040601 2 0 9.7 11.3 0.00 0.00 0.00 62 862.4
20260502040101 2 337 9.7 11.3 0.00 0.00 0.00 62 862.6
20260502035601 2 337 4.8 9.7 0.00 0.00 0.00 62 862.8
20260502035101 2 337 4.8 6.4 0.00 0.00 0.00 62 862.6
20260502034601 2 337 4.8 8.0 0.00 0.00 0.00 63 862.6
20260502034101 2 337 4.8 9.7 0.00 0.00 0.00 63 862.7
20260502033601 2 0 4.8 9.7 0.00 0.00 0.00 63 862.6
20260502033101 2 337 6.4 11.3 0.00 0.00 0.00 63 862.6
20260502032601 2 0 6.4 12.9 0.00 0.00 0.00 63 862.7
20260502032101 2 0 4.8 12.9 0.00 0.00 0.00 64 862.7
20260502031602 2 22 11.3 11.3 0.00 0.00 0.00 64 862.6
20260502031101 2 22 9.7 9.7 0.00 0.00 0.00 64 862.7
20260502030601 2 22 6.4 8.0 0.00 0.00 0.00 64 862.6
20260502030101 2 22 3.2 6.4 0.00 0.00 0.00 64 862.7
20260502025601 2 22 4.8 8.0 0.00 0.00 0.00 65 862.8
20260502025101 2 22 4.8 9.7 0.00 0.00 0.00 65 862.8
20260502024601 2 45 8.0 8.0 0.00 0.00 0.00 65 862.7
20260502024101 2 45 1.6 6.4 0.00 0.00 0.00 65 862.9
20260502023601 2 67 0.0 0.0 0.00 0.00 0.00 66 862.9
20260502023101 2 67 0.0 0.0 0.00 0.00 0.00 66 862.9
20260502022601 2 67 0.0 1.6 0.00 0.00 0.00 66 863.0
20260502022101 2 315 1.6 6.4 0.00 0.00 0.00 66 863.0
20260502021601 2 315 4.8 6.4 0.00 0.00 0.00 66 862.9
20260502021101 2 315 3.2 4.8 0.00 0.00 0.00 66 862.9
20260502020601 2 315 4.8 4.8 0.00 0.00 0.00 66 862.8
20260502020101 2 315 3.2 3.2 0.00 0.00 0.00 66 862.9
20260502015601 2 315 0.0 4.8 0.00 0.00 0.00 66 863.0
20260502015101 2 315 4.8 6.4 0.00 0.00 0.00 66 863.1
20260502014601 2 315 0.0 0.0 0.00 0.00 0.00 67 863.1
20260502014101 2 315 0.0 0.0 0.00 0.00 0.00 66 863.0
20260502013601 2 315 0.0 0.0 0.00 0.00 0.00 66 863.0
20260502013101 2 315 0.0 3.2 0.00 0.00 0.00 66 863.0
20260502012601 2 315 0.0 8.0 0.00 0.00 0.00 66 863.1
20260502012101 2 315 8.0 8.0 0.00 0.00 0.00 66 863.1
20260502011601 3 315 0.0 6.4 0.00 0.00 0.00 66 863.2
20260502011101 3 315 0.0 3.2 0.00 0.00 0.00 67 863.2
20260502010601 3 315 1.6 4.8 0.00 0.00 0.00 67 863.2
20260502005601 2 315 6.4 6.4 0.00 0.00 0.00 67 863.3
20260502005101 2 315 1.6 8.0 0.00 0.00 0.00 68 863.5
20260502004601 2 315 4.8 9.7 0.00 0.00 0.00 68 863.5
20260502004101 2 292 9.7 12.9 0.00 0.00 0.00 69 863.6
20260502003601 3 292 6.4 11.3 0.00 0.00 0.00 69 863.5
20260502003101 2 315 9.7 11.3 0.00 0.00 0.00 69 863.6
20260502002601 3 292 8.0 9.7 0.00 0.00 0.00 68 863.6
20260502002101 3 292 6.4 9.7 0.00 0.00 0.00 68 863.8
20260502001601 3 292 11.3 11.3 0.00 0.00 0.00 67 863.9
20260502001101 3 292 9.7 11.3 0.00 0.00 0.00 67 863.7
20260502000601 3 292 8.0 9.7 0.00 0.00 0.00 66 863.7
20260502000101 3 315 9.7 9.7 0.00 0.00 0.00 65 863.8
20260501235602 3 315 9.7 9.7 0.00 0.00 0.00 65 863.8
20260501235101 3 315 8.0 11.3 0.00 0.00 0.00 66 863.8
20260501234601 3 292 11.3 11.3 0.00 0.00 0.00 66 863.8
20260501234101 3 292 11.3 11.3 0.00 0.00 0.00 66 864.0
20260501233601 3 315 9.7 9.7 0.00 0.00 0.00 65 863.9
20260501233101 3 315 0.0 0.0 0.00 0.00 0.00 65 864.0
20260501232601 3 315 9.7 11.3 0.00 0.00 0.00 64 863.9
20260501232101 3 315 11.3 12.9 0.00 0.00 0.00 64 863.8
20260501231601 3 292 11.3 12.9 0.00 0.00 0.00 64 863.8
20260501231101 3 315 9.7 11.3 0.00 0.00 0.00 63 863.8
20260501230601 4 315 8.0 9.7 0.00 0.00 0.00 63 863.8
20260501230101 4 315 6.4 9.7 0.00 0.00 0.00 63 863.6
20260501225601 4 315 9.7 12.9 0.00 0.00 0.00 62 863.6
20260501225101 4 315 4.8 9.7 0.00 0.00 0.00 63 863.6
20260501224601 4 315 9.7 9.7 0.00 0.00 0.00 63 863.8
20260501224101 4 315 6.4 9.7 0.00 0.00 0.00 63 863.8
20260501223601 4 315 8.0 8.0 0.00 0.00 0.00 63 863.8
20260501223101 4 315 4.8 9.7 0.00 0.00 0.00 63 863.7
20260501222601 4 315 6.4 9.7 0.00 0.00 0.00 63 863.8
20260501222101 4 315 6.4 9.7 0.00 0.00 0.00 63 863.7
20260501221601 4 315 3.2 9.7 0.00 0.00 0.00 64 863.6
20260501221101 4 315 4.8 9.7 0.00 0.00 0.00 64 863.8
20260501220602 4 315 8.0 8.0 0.00 0.00 0.00 64 863.8
20260501215602 4 315 4.8 8.0 0.00 0.00 0.00 65 863.9
20260501215101 5 315 3.2 6.4 0.00 0.00 0.00 65 863.8
20260501214601 5 315 6.4 8.0 0.00 0.00 0.00 65 863.8